Weather History for KDBQ - March, 2013

Change the Weather History Date:

Monday, March 4, 2013

  Actual Average Record
Temperature  
Mean Temperature 26 °F 30 °F  
Max Temperature 30 °F 38 °F 67 °F (1983)
Min Temperature 21 °F 22 °F -13 °F (2002)
Degree Days  
Heating Degree Days 39 35  
Month to date heating degree days 182 142  
Since 1 July heating degree days 5432 5535  
Cooling Degree Days 0 0  
Month to date cooling degree days 0 0  
Year to date cooling degree days 0 0  
Moisture  
Dew Point 19 °F    
Average Humidity 79    
Maximum Humidity 96    
Minimum Humidity 62    
Precipitation  
Precipitation 0.04 in 0.07 in 2.08 in (1976)
Month to date precipitation 0.04 0.27  
Year to date precipitation 3.46 2.88  
Snow  
Snow 0.80 in 0.30 in - ()
Month to date snowfall 0.8 1.0  
Since 1 July snowfall 42.7 34.6  
Snow Depth 5.00 in    
Sea Level Pressure  
Sea Level Pressure 30.01 in    
Wind  
Wind Speed 14 mph (ESE)    
Max Wind Speed 22 mph    
Max Gust Speed 31 mph    
Visibility 7 miles    
Events Snow    
T = Trace of Precipitation, MM = Missing Value Source: NWS Daily Summary

Daily Weather History Graph

Daily Weather History Graph

Search for Another Location

Airport or City:

Trip Planner

Search our weather history database for the weather conditions in past years. The results will help you decide how hot, cold, wet, or windy it might be!

Date:

Astronomy

Mar. 04, 2013 Rise Set
Actual Time 6:32 AM CST 5:56 PM CST
Civil Twilight 6:04 AM CST 6:24 PM CST
Nautical Twilight 5:32 AM CST 6:57 PM CST
Astronomical Twilight 4:59 AM CST 7:29 PM CST
Moon 12:47 AM CST (3/4) 10:33 AM CST (3/4)
Length of Visible Light 12h 19m
Length of Day
11h 23m
Waning Gibbous, 52% of the Moon is Illuminated
Mar 4
Waning Gibbous
Mar 4
Last Quarter
Mar 11
New
Mar 19
First Quarter
Mar 27
Full

Hourly Weather History & Observations

Time (CST) Temp. Windchill Dew Point Humidity Pressure Visibility Wind Dir Wind Speed Gust Speed Precip Events Conditions
12:53 AM 21.0 °F 10.6 °F 12.0 °F 68% 30.10 in 10.0 mi ESE 9.2 mph - N/A   Scattered Clouds
1:53 AM 21.0 °F 10.6 °F 10.9 °F 65% 30.09 in 10.0 mi ESE 9.2 mph - N/A   Clear
2:53 AM 21.9 °F 11.7 °F 10.9 °F 63% 30.07 in 10.0 mi ESE 9.2 mph - N/A   Mostly Cloudy
3:53 AM 21.9 °F 11.0 °F 12.0 °F 66% 30.05 in 10.0 mi ESE 10.4 mph - N/A   Overcast
4:53 AM 21.9 °F 10.4 °F 12.0 °F 66% 30.05 in 10.0 mi ESE 11.5 mph - N/A   Overcast
5:53 AM 21.9 °F 11.0 °F 12.9 °F 68% 30.05 in 10.0 mi ESE 10.4 mph - N/A   Overcast
6:53 AM 23.0 °F 11.1 °F 12.9 °F 65% 30.04 in 10.0 mi East 12.7 mph - N/A   Overcast
7:53 AM 23.0 °F 11.7 °F 15.1 °F 72% 30.05 in 10.0 mi ESE 11.5 mph - N/A   Overcast
8:04 AM 23.0 °F 10.6 °F 15.8 °F 74% 30.00 in 4.0 mi ESE 13.8 mph - 0.00 in Snow Light Snow
8:12 AM 23.0 °F 11.7 °F 15.8 °F 74% 30.00 in 1.8 mi ESE 11.5 mph - 0.00 in Snow Light Snow
8:25 AM 23.0 °F 11.7 °F 17.6 °F 80% 29.99 in 0.8 mi East 11.5 mph - 0.00 in Snow Light Snow
8:48 AM 23.0 °F 11.7 °F 19.4 °F 86% 30.00 in 1.8 mi ESE 11.5 mph - 0.01 in Snow Light Snow
8:53 AM 23.0 °F 12.4 °F 19.0 °F 85% 30.05 in 1.8 mi ESE 10.4 mph - 0.01 in Snow Light Snow
9:53 AM 23.0 °F 10.1 °F 21.0 °F 92% 30.04 in 1.2 mi ESE 15.0 mph - 0.01 in Snow Light Snow
10:15 AM 24.8 °F 12.4 °F 21.2 °F 86% 29.98 in 2.0 mi ESE 15.0 mph - 0.01 in Snow Light Snow
10:42 AM 24.8 °F 11.9 °F 21.2 °F 86% 29.98 in 1.8 mi ESE 16.1 mph - 0.01 in Snow Light Snow
10:53 AM 24.1 °F 10.6 °F 21.9 °F 91% 30.03 in 1.8 mi ESE 17.3 mph - 0.01 in Snow Light Snow
11:53 AM 26.1 °F 12.7 °F 21.9 °F 84% 30.02 in 1.8 mi East 18.4 mph - 0.00 in   Overcast
12:00 PM 26.6 °F 14.3 °F 21.2 °F 80% 29.97 in 10.0 mi ESE 16.1 mph - N/A   Overcast
12:53 PM 28.0 °F 14.9 °F 23.0 °F 81% 30.00 in 10.0 mi East 19.6 mph - N/A   Overcast
1:29 PM 28.4 °F 14.7 °F 23.0 °F 80% 29.93 in 10.0 mi East 21.9 mph 25.3 mph N/A   Overcast
1:53 PM 28.9 °F 15.4 °F 23.0 °F 78% 29.97 in 10.0 mi ESE 21.9 mph 31.1 mph N/A   Overcast
2:53 PM 28.9 °F 16.1 °F 21.9 °F 75% 29.96 in 10.0 mi East 19.6 mph 27.6 mph N/A   Overcast
3:53 PM 30.0 °F 19.5 °F 23.0 °F 75% 29.96 in 10.0 mi East 13.8 mph 23.0 mph N/A   Mostly Cloudy
4:09 PM 30.2 °F 17.4 °F 23.0 °F 75% 29.91 in 10.0 mi East 20.7 mph 26.5 mph N/A   Mostly Cloudy
4:53 PM 30.0 °F 19.1 °F 21.9 °F 72% 29.96 in 10.0 mi ESE 15.0 mph - N/A   Overcast
5:53 PM 28.9 °F 17.7 °F 24.1 °F 82% 29.98 in 10.0 mi East 15.0 mph - N/A   Overcast
6:53 PM 28.0 °F 17.5 °F 23.0 °F 81% 30.00 in 10.0 mi East 12.7 mph - N/A   Overcast
7:53 PM 28.0 °F 17.5 °F 21.9 °F 78% 30.01 in 10.0 mi East 12.7 mph - N/A   Overcast
8:53 PM 28.0 °F 16.5 °F 21.0 °F 75% 30.01 in 10.0 mi East 15.0 mph 23.0 mph N/A   Overcast
9:05 PM 26.6 °F 14.7 °F 21.2 °F 80% 29.96 in 10.0 mi East 15.0 mph - N/A   Overcast
9:53 PM 28.0 °F 17.0 °F 21.0 °F 75% 30.00 in 10.0 mi East 13.8 mph - N/A   Overcast
10:45 PM 26.6 °F 17.5 °F 21.2 °F 80% 29.97 in 2.5 mi East 9.2 mph - 0.00 in Snow Light Snow
10:53 PM 27.0 °F 17.3 °F 21.9 °F 81% 30.02 in 2.0 mi ENE 10.4 mph - 0.00 in Snow Light Snow
11:08 PM 26.6 °F 18.2 °F 23.0 °F 86% 29.97 in 3.0 mi NE 8.1 mph - 0.01 in Snow Light Snow
11:53 PM 26.1 °F 16.2 °F 23.0 °F 88% 30.00 in 5.0 mi ENE 10.4 mph - 0.01 in Snow Light Snow